Waarnemingen

Advertentie
Mijn weer
Putbus, Duitsland (10093): temperatuur & dauwpunt: 15.10.2017 03:00:00 - 21.10.2017 03:00:00 (CEST)Putbus, Duitsland (10093): temperatuur 5cm & temperatuur -5cm: 15.10.2017 03:00:00 - 21.10.2017 03:00:00 (CEST)Putbus, Duitsland (10093): temperatuur -20cm & temperatuur -100cm: 15.10.2017 03:00:00 - 21.10.2017 03:00:00 (CEST)Putbus, Duitsland (10093): windsnelheid & windstoten: 15.10.2017 03:00:00 - 21.10.2017 03:00:00 (CEST)Putbus, Duitsland (10093): windrichting: 15.10.2017 03:00:00 - 21.10.2017 03:00:00 (CEST)Putbus, Duitsland (10093): luchtdruk: 15.10.2017 03:00:00 - 21.10.2017 03:00:00 (CEST)Putbus, Duitsland (10093): zicht: 15.10.2017 03:00:00 - 21.10.2017 03:00:00 (CEST)Putbus, Duitsland (10093): Zonneschijnduur: 15.10.2017 03:00:00 - 21.10.2017 03:00:00 (CEST)Putbus, Duitsland (10093): neerslag: 15.10.2017 03:00:00 - 21.10.2017 03:00:00 (CEST)
Datum & Tijd tt [°C] td [°C] tt 5cm [°C] tt -5cm [°C] tt -20cm [°C] tt -100cm [°C] ff [km/u] ff [kn] fx [km/u] fx [kn] dd ppp [hPa] vv [km] sd [min] rr [mm]
21.10.2017 03:00:00 12,0 11,6 11,5 12,0 12,6 13,0 11 6 19 10 WZW 1011,9 2,4 0 0,0
21.10.2017 02:00:00 12,2 12,0 12,1 12,2 12,6 13,0 3 2 7 4 ZO 1012,2 1,0 0 0,7
21.10.2017 01:00:00 12,3 12,0 12,1 12,2 12,7 13,0 3 1 20 11 NW 1011,9 1,1 0 0,3
21.10.2017 00:00:00 12,3 12,1 11,8 12,2 12,7 13,0 5 3 9 5 ZO 1012,0 0,8 0 0,0
20.10.2017 23:00:00 12,5 12,2 11,9 12,4 12,8 13,0 4 2 10 5 O 1011,9 1,2 0 0,1
20.10.2017 22:00:00 12,8 12,4 12,6 12,6 12,8 13,0 9 5 21 12 ZW 1012,6 1,8 0 1,9
20.10.2017 21:00:00 12,9 12,1 12,5 12,6 12,9 13,0 9 5 18 10 ZO 1012,1 2,1 0 0,8
20.10.2017 20:00:00 12,6 11,8 12,3 12,7 13,0 13,0 9 5 18 10 Z 1012,6 2,5 0 0,1
20.10.2017 19:00:00 12,5 11,7 12,2 13,0 13,0 13,0 7 4 13 7 ONO 1012,1 2,3 0 0,2
20.10.2017 18:00:00 13,0 11,6 12,5 13,5 13,0 13,1 5 3 11 6 ZO 1012,7 3,4 0 0,0
20.10.2017 17:00:00 13,2 11,6 13,1 14,0 12,9 13,1 5 3 14 8 ZO 1012,5 3,6 0 0,0
20.10.2017 16:00:00 13,2 11,5 13,3 14,4 12,8 13,1 8 4 17 9 OZO 1012,7 3,7 0 0,0
20.10.2017 15:00:00 12,9 10,9 13,1 14,4 12,5 13,1 10 5 20 11 OZO 1012,7 4,4 6 0,0
20.10.2017 14:00:00 12,5 10,5 13,1 14,5 12,2 13,1 9 5 19 11 ZO 1012,6 4,2 30 0,0
20.10.2017 13:00:00 12,0 10,4 13,0 13,5 12,0 13,1 10 5 19 10 ZO 1013,1 3,6 0 0,0
20.10.2017 12:00:00 11,7 10,6 12,3 12,7 11,9 13,1 8 5 22 12 ZZO 1013,3 3,2 0 0,0
20.10.2017 11:00:00 11,2 10,1 11,8 12,0 11,8 13,1 11 6 23 13 ZZO 1013,2 3,0 0 0,0
20.10.2017 10:00:00 11,0 10,2 11,4 11,5 11,8 13,1 9 5 23 12 ZZO 1013,3 2,6 0 0,0
20.10.2017 09:00:00 11,1 10,2 11,2 11,3 11,8 13,1 9 5 22 12 ZZO 1013,3 2,6 0 0,0
20.10.2017 08:00:00 11,2 10,5 11,2 11,1 11,8 13,1 10 5 25 14 ZZO 1013,2 2,1 0 0,0
20.10.2017 07:00:00 11,8 11,2 11,6 10,9 11,8 13,1 13 7 27 15 ZO 1013,2 2,2 0 0,0
20.10.2017 06:00:00 11,6 11,1 10,6 10,5 11,9 13,1 10 6 22 12 ZO 1013,2 2,0 0 0,0
20.10.2017 05:00:00 11,7 11,1 11,0 10,6 12,0 13,1 13 7 25 14 ZO 1013,6 2,5 0 0,0
20.10.2017 04:00:00 11,6 10,8 10,7 10,9 12,1 13,1 11 6 27 14 OZO 1013,8 3,7 0 0,0
20.10.2017 03:00:00 12,0 10,8 11,2 11,5 12,2 13,1 11 6 24 13 OZO 1014,3 6 0 0,0
20.10.2017 02:00:00 12,3 10,8 12,2 11,6 12,2 13,1 11 6 25 14 OZO 1014,6 7 0 0,0
20.10.2017 01:00:00 12,4 10,6 12,2 11,3 12,3 13,1 10 6 25 13 ZO 1014,9 9 0 0,0
20.10.2017 00:00:00 12,7 10,5 12,4 11,7 12,3 13,1 10 5 21 12 ZO 1015,4 10 0 0,0
19.10.2017 23:00:00 12,7 10,6 12,4 11,6 12,4 13,1 9 5 21 11 OZO 1015,8 15 0 0,0
19.10.2017 22:00:00 12,7 10,8 12,4 11,2 12,5 13,1 10 6 23 12 OZO 1015,6 14 0 0,0
19.10.2017 21:00:00 12,5 10,6 11,5 11,1 12,7 13,1 13 7 22 12 OZO 1015,4 14 0 0,0
19.10.2017 20:00:00 12,2 10,7 11,3 11,5 12,9 13,1 13 7 24 13 OZO 1015,5 11 0 0,0
19.10.2017 19:00:00 12,1 10,5 11,2 12,0 13,1 13,1 10 5 23 12 O 1015,6 12 0 0,0
19.10.2017 18:00:00 11,8 10,5 11,2 12,9 13,3 13,1 10 5 21 11 O 1015,6 11 0 0,0
19.10.2017 17:00:00 12,1 10,5 11,7 14,1 13,2 13,1 10 5 23 12 OZO 1016,0 10 14 0,0
19.10.2017 16:00:00 13,0 10,4 13,4 15,6 13,0 13,1 13 7 25 13 O 1016,0 12 56 0,0
19.10.2017 15:00:00 13,5 10,6 15,0 15,8 12,6 13,1 13 7 21 11 O 1016,2 16 39 0,0
19.10.2017 14:00:00 13,4 10,9 14,2 15,3 12,2 13,1 12 6 22 12 O 1016,5 13 4 0,0
19.10.2017 13:00:00 13,5 10,5 15,1 15,1 11,7 13,1 14 8 26 14 O 1016,6 15 56 0,0
19.10.2017 12:00:00 13,2 9,9 14,4 13,3 11,4 13,1 12 6 21 11 O 1016,8 24 42 0,0
19.10.2017 11:00:00 12,7 9,9 12,3 12,3 11,2 13,1 11 6 22 12 O 1016,7 21 33 0,0
19.10.2017 10:00:00 11,7 10,2 11,2 10,8 11,1 13,1 8 4 13 7 O 1016,6 18 0 0,0
19.10.2017 09:00:00 10,6 9,9 10,3 9,7 11,1 13,1 5 3 8 4 O 1016,5 15 0 0,0
19.10.2017 08:00:00 10,2 9,8 9,3 9,4 11,2 13,1 5 3 12 6 O 1016,1 10 0 0,0
19.10.2017 07:00:00 10,6 10,1 10,1 9,1 11,4 13,1 7 4 12 7 OZO 1016,1 20 0 0,0
19.10.2017 06:00:00 10,1 9,8 8,0 9,4 11,5 13,1 5 3 13 7 OZO 1016,3 6 0 0,0
19.10.2017 05:00:00 9,6 9,4 8,3 9,2 11,7 13,1 8 4 10 6 OZO 1016,0 5 0 0,0
19.10.2017 04:00:00 8,4 8,2 7,3 9,3 11,9 13,1 4 2 9 5 OZO 1016,2 1,3 0 0,0
19.10.2017 03:00:00 8,9 8,9 7,1 9,6 12,2 13,1 3 1 6 4 ONO 1016,1 2,9 0 0,0
19.10.2017 02:00:00 9,4 9,2 7,1 10,2 12,4 13,1 3 1 6 3 O 1016,1 4,0 0 0,0
19.10.2017 01:00:00 10,1 9,9 7,7 10,6 12,6 13,1 4 2 7 4 NNO 1016,2 7 0 0,0
19.10.2017 00:00:00 10,1 9,7 8,7 11,0 12,8 13,1 4 2 6 4 O 1016,1 8 0 0,0
18.10.2017 23:00:00 10,1 9,6 8,3 11,4 13,0 13,2 0 0 5 3 N 1016,2 7 0 0,0
18.10.2017 22:00:00 10,9 10,3 9,3 11,8 13,2 13,2 3 2 10 5 ONO 1016,1 11 0 0,0
18.10.2017 21:00:00 10,6 10,1 9,4 12,3 13,5 13,2 3 2 4 2 N 1015,9 11 0 0,0
18.10.2017 20:00:00 11,4 10,5 10,0 13,2 13,6 13,2 4 2 5 3 ONO 1015,6 11 0 0,0
18.10.2017 19:00:00 12,5 10,8 11,9 14,2 13,6 13,2 0 0 7 4 N 1015,8 10 0 0,0
18.10.2017 18:00:00 13,4 10,6 13,0 15,2 13,5 13,2 2 1 9 5 WNW 1015,5 9 26 0,0
18.10.2017 17:00:00 14,8 10,2 15,5 16,2 13,3 13,2 9 5 13 7 W 1015,2 21 59 0,0
18.10.2017 16:00:00 14,4 10,8 15,2 16,2 12,9 13,2 7 4 16 8 ZZW 1015,3 13 32 0,0
18.10.2017 15:00:00 14,5 10,2 15,7 16,8 12,3 13,2 6 4 16 9 N 1015,4 23 39 0,0
18.10.2017 14:00:00 15,4 10,0 19,0 15,9 11,7 13,2 9 5 20 11 WNW 1015,6 21 60 0,0
18.10.2017 13:00:00 14,7 10,4 16,2 14,0 11,3 13,2 13 7 19 11 W 1015,8 18 52 0,0
18.10.2017 12:00:00 13,7 10,4 15,2 12,6 10,9 13,2 12 7 24 13 W 1016,2 16 60 0,0
18.10.2017 11:00:00 12,2 9,9 13,1 10,8 10,8 13,2 13 7 19 11 WZW 1016,2 15 60 0,0
18.10.2017 10:00:00 10,7 9,4 10,8 9,3 10,8 13,2 14 8 21 11 ZW 1016,0 14 60 0,0
18.10.2017 09:00:00 9,4 8,7 8,9 8,5 10,9 13,2 12 6 18 10 WZW 1015,7 9 24 0,0
18.10.2017 08:00:00 8,9 8,4 8,1 8,4 11,1 13,2 13 7 19 11 WZW 1015,4 8 0 0,0
18.10.2017 07:00:00 9,2 8,6 8,3 8,6 11,3 13,2 13 7 19 10 WZW 1015,2 9 0 0,0
18.10.2017 06:00:00 9,3 8,7 8,3 8,8 11,5 13,2 11 6 22 12 WZW 1015,2 9 0 0,0
18.10.2017 05:00:00 9,5 8,8 8,5 9,1 11,6 13,2 10 5 17 9 ZW 1015,2 10 0 0,0
18.10.2017 04:00:00 10,0 8,9 8,9 9,4 11,8 13,2 10 6 16 9 ZW 1015,7 12 0 0,0
18.10.2017 03:00:00 10,4 9,0 9,0 9,7 12,0 13,2 9 5 18 10 WZW 1015,9 16 0 0,0
18.10.2017 02:00:00 11,1 9,0 9,6 10,1 12,2 13,2 10 5 26 14 WZW 1016,1 17 0 0,0
18.10.2017 01:00:00 11,7 8,9 10,8 10,4 12,4 13,2 17 9 31 17 WZW 1016,3 18 0 0,0
18.10.2017 00:00:00 12,4 8,8 11,5 10,8 12,5 13,2 20 11 33 18 WZW 1016,4 21 0 0,0
17.10.2017 23:00:00 13,2 8,8 12,6 11,1 12,7 13,2 23 12 32 17 WZW 1016,6 22 0 0,0
17.10.2017 22:00:00 12,8 8,6 12,0 10,9 12,9 13,2 16 9 27 14 WZW 1016,7 23 0 0,0
17.10.2017 21:00:00 13,1 8,6 11,9 11,3 13,1 13,2 16 9 27 15 WZW 1016,9 22 0 0,0
17.10.2017 20:00:00 13,3 8,8 11,9 11,6 13,3 13,2 14 7 22 12 ZW 1016,9 19 0 0,0
17.10.2017 19:00:00 13,7 8,9 12,3 12,2 13,5 13,2 14 7 29 16 ZW 1016,8 23 0 0,0
17.10.2017 18:00:00 14,4 9,5 13,2 13,2 13,6 13,2 14 8 26 14 ZW 1016,8 20 0 0,0
17.10.2017 17:00:00 15,2 10,2 14,3 14,1 13,6 13,2 13 7 23 13 WZW 1016,9 19 0 0,0
17.10.2017 16:00:00 15,9 10,8 15,4 14,8 13,4 13,2 13 7 29 15 ZW 1017,2 21 8 0,0
17.10.2017 15:00:00 16,1 11,1 15,8 14,7 13,3 13,2 18 10 31 17 WZW 1017,6 18 0 0,0
17.10.2017 14:00:00 16,2 11,2 15,9 14,5 13,1 13,2 19 11 34 19 WZW 1018,1 20 0 0,0
17.10.2017 13:00:00 16,1 12,5 15,9 14,5 12,8 13,2 18 10 32 17 WZW 1018,3 14 0 0,0
17.10.2017 12:00:00 15,9 12,8 15,8 14,1 12,6 13,2 16 9 27 15 ZW 1018,4 6 12 0,0
17.10.2017 11:00:00 15,7 12,8 15,7 13,4 12,4 13,2 17 9 30 16 WZW 1018,6 10 29 0,0
17.10.2017 10:00:00 14,5 12,4 13,8 12,2 12,4 13,2 17 9 25 13 WZW 1018,9 11 0 0,0
17.10.2017 09:00:00 13,8 12,0 12,6 11,7 12,4 13,2 19 10 25 14 WZW 1018,8 11 0 0,0
17.10.2017 08:00:00 13,5 11,9 12,3 11,5 12,4 13,1 16 9 26 14 WZW 1018,4 10 0 0,0
17.10.2017 07:00:00 13,4 12,2 12,2 11,5 12,5 13,1 13 7 22 12 ZW 1018,2 8 0 0,0
17.10.2017 06:00:00 13,9 12,6 12,7 11,6 12,5 13,1 15 8 26 14 ZW 1018,4 8 0 0,0
17.10.2017 05:00:00 13,4 12,7 12,7 11,4 12,6 13,1 16 8 24 13 ZZW 1018,7 4,4 0 0,0
17.10.2017 04:00:00 12,9 12,6 12,2 11,4 12,7 13,1 10 6 17 9 ZZW 1019,2 2,6 0 0,0
17.10.2017 03:00:00 12,6 12,4 12,0 11,2 12,8 13,1 7 4 16 9 Z 1019,8 1,2 0 0,0
17.10.2017 02:00:00 12,2 12,0 11,4 11,1 13,0 13,1 5 3 12 7 Z 1020,2 0,8 0 0,0
17.10.2017 01:00:00 12,0 12,0 10,5 11,3 13,1 13,1 4 2 10 5 ZZO 1020,8 0,9 0 0,0
17.10.2017 00:00:00 12,1 12,0 10,9 11,5 13,3 13,1 3 2 10 5 ZZO 1021,0 0,8 0 0,0
16.10.2017 23:00:00 11,8 11,8 11,0 11,5 13,6 13,1 4 2 10 5 ZZO 1021,0 0,1 0 0,0
16.10.2017 22:00:00 11,1 10,9 9,7 11,9 13,8 13,1 3 2 6 4 ZO 1021,2 1,4 0 0,0
16.10.2017 21:00:00 11,5 11,4 9,0 12,4 14,1 13,1 0 0 6 3 N 1020,9 0,8 0 0,0
16.10.2017 20:00:00 11,5 11,1 10,2 12,9 14,4 13,1 2 1 5 3 Z 1020,9 1,7 0 0,0
16.10.2017 19:00:00 12,8 12,2 11,2 13,8 14,6 13,1 5 3 13 7 WNW 1020,8 3,0 0 0,0
16.10.2017 18:00:00 13,6 12,6 12,7 14,9 14,6 13,1 10 5 25 13 W 1020,6 3,3 0 0,0
16.10.2017 17:00:00 14,3 12,9 14,2 16,1 14,5 13,1 16 8 24 13 W 1020,7 4,1 0 0,0
16.10.2017 16:00:00 15,0 13,2 15,6 16,9 14,3 13,1 16 9 30 16 WNW 1020,9 4,8 6 0,0
16.10.2017 15:00:00 16,0 13,3 16,7 17,7 13,9 13,1 16 9 32 18 WNW 1020,8 7 51 0,0
16.10.2017 14:00:00 16,8 13,7 19,1 17,2 13,4 13,1 20 11 30 16 WNW 1020,6 7 56 0,0
16.10.2017 13:00:00 17,2 13,6 18,5 16,2 12,9 13,1 19 11 32 17 W 1020,3 9 60 0,0
16.10.2017 12:00:00 16,7 13,5 17,8 14,9 12,6 13,1 19 11 30 16 W 1020,0 11 60 0,0
16.10.2017 11:00:00 15,7 12,7 16,2 13,2 12,4 13,1 18 10 27 14 WZW 1020,1 12 60 0,0
16.10.2017 10:00:00 14,0 11,5 14,0 11,7 12,4 13,0 21 11 29 16 WZW 1019,7 16 60 0,0
16.10.2017 09:00:00 12,9 11,0 11,8 10,9 12,5 13,0 17 9 26 14 WZW 1019,4 15 43 0,0
16.10.2017 08:00:00 12,5 10,9 11,2 10,9 12,6 13,0 14 8 23 12 WZW 1019,1 13 0 0,0
16.10.2017 07:00:00 12,6 11,0 11,2 11,0 12,8 13,0 16 9 22 12 WZW 1019,1 14 0 0,0
16.10.2017 06:00:00 12,8 11,3 11,5 11,3 12,9 13,0 16 9 22 12 WZW 1019,2 13 0 0,0
16.10.2017 05:00:00 13,4 11,9 12,0 11,5 13,1 13,0 17 9 24 13 WZW 1019,4 14 0 0,0
16.10.2017 04:00:00 13,6 12,3 12,2 11,7 13,2 13,0 14 7 20 11 ZW 1019,6 11 0 0,0
16.10.2017 03:00:00 13,9 12,7 12,7 11,9 13,4 13,0 14 7 22 12 ZW 1020,1 11 0 0,0
16.10.2017 02:00:00 14,0 13,0 13,0 12,0 13,5 13,0 14 8 24 13 ZZW 1020,0 10 0 0,0
16.10.2017 01:00:00 13,8 13,0 12,7 12,1 13,7 13,0 12 7 20 11 ZZW 1020,3 6 0 0,0
16.10.2017 00:00:00 13,7 13,1 12,5 12,4 13,9 13,0 10 5 20 11 ZZW 1020,6 4,8 0 0,0
15.10.2017 23:00:00 13,9 13,2 13,0 12,7 14,1 12,9 12 6 21 12 Z 1021,0 6 0 0,0
15.10.2017 22:00:00 14,2 13,4 13,2 13,0 14,3 12,9 12 7 22 12 Z 1021,4 8 0 0,0
15.10.2017 21:00:00 14,5 13,4 13,5 13,3 14,6 12,9 14 8 26 14 Z 1021,9 11 0 0,0
15.10.2017 20:00:00 14,6 13,8 13,6 13,7 14,8 12,9 11 6 23 12 Z 1022,3 11 0 0,0
15.10.2017 19:00:00 13,5 13,0 12,2 14,4 15,0 12,9 9 5 15 8 Z 1022,6 7 0 0,0
15.10.2017 18:00:00 14,2 13,4 13,2 15,6 15,1 12,9 7 4 16 9 Z 1022,8 7 47 0,0
15.10.2017 17:00:00 14,8 13,5 15,1 16,5 15,0 12,9 10 5 22 12 Z 1023,2 11 0 0,0
15.10.2017 16:00:00 15,0 13,6 15,5 16,6 14,9 12,9 13 7 26 14 ZZW 1023,7 11 0 0,0
15.10.2017 15:00:00 15,0 13,6 15,7 16,9 14,8 12,9 14 7 25 13 ZZW 1024,2 9 0 0,0
15.10.2017 14:00:00 15,2 13,5 15,9 17,1 14,6 12,9 15 8 22 12 ZZW 1024,5 9 0 0,0
15.10.2017 13:00:00 15,9 13,8 16,6 17,3 14,3 12,9 11 6 23 12 WZW 1024,8 15 7 0,0
15.10.2017 12:00:00 17,1 14,1 18,1 16,9 14,0 12,9 8 5 20 11 W 1024,7 22 43 0,0
15.10.2017 11:00:00 16,3 13,7 16,9 15,4 13,8 12,9 13 7 21 11 WZW 1025,0 18 47 0,0
15.10.2017 10:00:00 15,3 13,7 15,5 14,3 13,8 12,8 14 8 25 13 W 1024,8 11 51 0,0
15.10.2017 09:00:00 14,4 13,4 13,9 13,8 13,9 12,8 14 8 25 13 W 1024,4 9 24 0,0
15.10.2017 08:00:00 14,2 13,6 13,8 14,2 13,9 12,8 18 10 31 17 W 1024,1 6 0 0,0
15.10.2017 07:00:00 14,7 13,6 14,4 14,3 13,9 12,8 19 10 40 22 WNW 1024,2 8 0 0,0
15.10.2017 06:00:00 15,3 13,7 14,8 14,3 13,9 12,8 21 11 31 17 W 1023,4 16 0 0,0
15.10.2017 05:00:00 15,3 14,0 14,8 14,3 13,9 12,8 19 10 37 20 W 1023,2 11 0 0,0
15.10.2017 04:00:00 15,2 14,0 14,7 14,2 13,9 12,8 21 11 37 20 W 1023,0 8 0 0,0
15.10.2017 03:00:00 15,3 14,0 14,4 14,4 14,0 12,8 20 11 35 19 W 1022,6 9 0 0,0

tt = temperatuur
td = dauwpunt
tt 5cm = temperatuur 5cm
tt -5cm = temperatuur -5cm
tt -20cm = temperatuur -20cm
tt -100cm = temperatuur -100cm
ff = windsnelheid
fx = windstoten
dd = windrichting
ppp = luchtdruk
vv = zicht
sd = Zonneschijnduur
rr = neerslag

Weerstations in de omgeving